This demonstration page uses our WeatherBlox Daily Observations layout. Learn more.

Left ArrowRight Arrow

39.01783, -85.05884

Hourly Observations for February 7, 2019

Temp ( °F °C ) Dew Point ( °F °C ) Humidity (%) Winds ( mph kmh ) Pressure ( in mb ) Visibility ( mi km ) Precip ( " mm )
12:18 am 00:18 Cloudy with Light Rain 54 12.2 52 11.1 93 93 ESE 3 6 29.95 1014 4 6 0.01 0.25
12:52 am 00:52 Cloudy with Light Rain 55 12.8 53 11.7 93 93 ENE 3 6 29.95 1014 5 8 0.02 0.51
1:52 am 01:52 Cloudy with Mist and Fog 55 12.8 53 11.7 93 93 ESE 5 7 29.92 1013 4 6 0.00 0.03
2:27 am 02:27 Cloudy with Mist and Fog 54 12.2 53 11.7 97 97 E 9 15 29.91 1013 4 6 0.00 0.00
2:52 am 02:52 Cloudy with Mist and Fog 55 12.8 53 11.7 93 93 ESE 7 11 29.89 1012 5 8 0.00 0.00
3:03 am 03:03 Cloudy with Mist and Fog 54 12.2 53 11.7 97 97 ESE 6 9 29.91 1013 5 8 0.00 0.00
3:28 am 03:28 Cloudy with Mist and Fog 55 12.8 53 11.7 93 93 ESE 6 9 29.92 1013 4 6 0.00 0.00
3:52 am 03:52 Cloudy with Mist and Fog 55 12.8 54 12.2 96 96 SE 6 9 29.91 1013 4 6 0.00 0.00
4:52 am 04:52 Cloudy with Patchy Fog 55 12.8 53 11.7 93 93 SE 7 11 29.89 1012 1 1 0.00 0.00
5:52 am 05:52 Cloudy with Patchy Fog 55 12.8 53 11.7 93 93 SE 9 15 29.88 1012 1 2 0.00 0.00
6:52 am 06:52 Cloudy with Mist and Fog 55 12.8 53 11.7 93 93 SE 12 19 29.85 1011 1 2 0.00 0.00
7:38 am 07:38 Mostly Cloudy with Fog 55 12.8 54 12.2 96 96 SSE 10 17 29.86 1011 5 8 0.00 0.00
7:52 am 07:52 Cloudy with Patchy Fog 55 12.8 54 12.2 96 96 SSE 13 20 29.85 1011 1 1 0.00 0.00
8:03 am 08:03 Cloudy with Light Rain 55 12.8 54 12.2 96 96 SE 14 22 29.85 1011 6 10 0.00 0.03
8:52 am 08:52 Cloudy with Light Rain 56 13.3 54 12.2 93 93 SE 10 17 29.86 1011 7 11 0.02 0.51
9:21 am 09:21 Cloudy with Light Rain 56 13.3 54 12.2 93 93 SSE 14 22 29.87 1011 5 8 0.01 0.25
9:27 am 09:27 Cloudy with Rain 56 13.3 54 12.2 93 93 SSE 12 19 29.87 1011 4 6 0.02 0.51
9:52 am 09:52 Cloudy with Light Rain 57 13.9 55 12.8 93 93 SSE 10 17 29.84 1010 4 6 0.06 1.52
10:52 am 10:52 Cloudy with Rain 57 13.9 55 12.8 93 93 SE 13 20 29.82 1010 3 5 0.15 3.81
11:02 am 11:02 Cloudy with Rain 57 13.9 55 12.8 93 93 SE 12 19 29.83 1010 3 4 0.05 1.27
11:11 am 11:11 Cloudy with Nearby Thunderstorms 57 13.9 55 12.8 93 93 SE 6 9 29.83 1010 3 4 0.11 2.79
11:16 am 11:16 Cloudy with Rain 57 13.9 55 12.8 93 93 ESE 7 11 29.83 1010 3 5 0.14 3.56
11:33 am 11:33 Cloudy with Light Rain 57 13.9 55 12.8 93 93 ESE 9 15 29.81 1009 3 5 0.16 4.06
11:38 am 11:38 Cloudy with Thunderstorms 57 13.9 55 12.8 93 93 SE 10 17 29.82 1010 2 2 0.17 4.32
11:52 am 11:52 Cloudy with Thunderstorms 57 13.9 56 13.3 96 96 ESE 8 13 29.79 1009 2 3 0.42 10.67
11:57 am 11:57 Cloudy with Rain 57 13.9 56 13.3 96 96 SSE 8 13 29.80 1009 2 3 0.05 1.27
12:03 pm 12:03 Cloudy with Rain 57 13.9 56 13.3 96 96 SE 12 19 29.80 1009 3 5 0.07 1.78
12:52 pm 12:52 Cloudy with Light Rain 60 15.6 58 14.4 93 93 S 16 26 29.75 1007 7 11 0.14 3.56
1:28 pm 13:28 Cloudy 63 17.2 59 15 87 87 S 17 28 29.73 1007 9 14 0.01 0.25
1:52 pm 13:52 Cloudy with Light Rain 64 17.8 60 15.6 87 87 S 16 26 29.72 1006 9 14 0.02 0.51
2:52 pm 14:52 Cloudy with Light Rain 65 18.3 61 16.1 87 87 SSW 16 26 29.71 1006 7 11 0.00 0.03
3:15 pm 15:15 Cloudy with Heavy Rain 64 17.8 61 16.1 90 90 WSW 12 19 29.72 1007 2 3 0.05 1.27
3:20 pm 15:20 Cloudy with Heavy Rain 64 17.8 61 16.1 90 90 W 17 28 29.74 1007 1 2 0.12 3.05
3:26 pm 15:26 Cloudy with Light Rain 64 17.8 61 16.1 90 90 W 8 13 29.74 1007 3 5 0.16 4.06
3:52 pm 15:52 Cloudy with Light Rain 63 17.2 60 15.6 90 90 SW 16 26 29.74 1007 7 11 0.19 4.83
4:05 pm 16:05 Cloudy with Rain 62 16.7 59 15 90 90 SSW 13 20 29.75 1007 3 4 0.01 0.25
4:52 pm 16:52 Cloudy with Light Rain 60 15.6 58 14.4 93 93 SSW 9 15 29.75 1008 5 8 0.06 1.52
5:52 pm 17:52 Cloudy with Light Rain 61 16.1 58 14.4 90 90 SSW 16 26 29.73 1007 6 10 0.04 1.02
6:52 pm 18:52 Cloudy with Light Rain 61 16.1 57 13.9 87 87 SSW 15 24 29.72 1006 8 13 0.07 1.78
7:52 pm 19:52 Cloudy with Light Rain 60 15.6 57 13.9 90 90 SW 14 22 29.74 1007 5 8 0.11 2.79
8:16 pm 20:16 Cloudy with Light Rain 52 11.1 49 9.4 89 89 WNW 28 44 29.82 1010 7 11 0.01 0.25
8:52 pm 20:52 Cloudy 47 8.3 42 5.6 83 83 W 24 39 29.87 1011 10 16 0.01 0.25
9:52 pm 21:52 Cloudy 43 6.1 39 3.9 86 86 W 20 31 29.91 1013 10 16 0.00 0.00
10:18 pm 22:18 Cloudy 42 5.6 38 3.3 85 85 W 18 30 29.97 1015 10 16 0.00 0.00
10:52 pm 22:52 Cloudy 39 3.9 33 0.6 79 79 W 21 33 30.00 1016 10 16 0.00 0.00
11:52 pm 23:52 Cloudy 37 2.8 31 -0.6 79 79 W 20 31 30.01 1016 10 16 0.00 0.00

Powered by AerisWeather